Dryden Regional Airport
CYHD : now visible

Airfield :











YOU CAN JOIN US ON...

 
LOGIN :

Register | Disclaimer

   EN    FR    IT 

 









Legend :    VFR   Marginal VFR   IFR   Intensive IFR   Very Intensive IFR
Visi :
Ceiling :
>= 8 km
>= 3000ft
5 to 8 km
1000 to 3000 ft
1500m to 5 km
500 to 1000 ft
800 to 1500m
200 to 500 ft
< 800m
< 200 ft
Symbols :   Thunderstorms  Fog  Heavy snow  Heavy precipitations  Wind > 20 kt






- Airport Elevation : 1354 ft
- IATA code : YHD


CYHD - Dryden Regional

CURRENT METAR :
  • 041000Z AUTO 20005KT 160V220 9SM BKN150 20/14 A3009 RMK SLP187 DENSITY ALT 2000FT

EXPIRED METARs :
  • 040900Z AUTO 15004KT 9SM OVC170 21/14 A3009 RMK SLP187 DENSITY ALT 2100FT

TAF TAF CYHD
Valid from the 04 at 08:00 until the 04 at 20:00 UTC


040738Z 0408/0420 29008KT P6SM SCT200
BECMG 0410/0412 VRB03KT
FM041800 14006KT P6SM FEW120 RMK FCST BASED ON AUTO OBS. NXT FCST BY 041400Z
CZWG FIR / North America



MET'MAP, your aeronautical weather chart ! - Copyright ORBIFLY December 2007 - Disclaimer

ORBIFLY MET'MAP TEAM :

Programming & Development : Alexandra Zaïnal
Concept & original design : Baudouin d'Aumeries
Assistance for programming : Marc-Olivier Méhu
Technical & hardware support : Manuel Goepfert

Contact : metmap@orbifly.com




SOURCES & CREDITS :

   NOAA       Earth
Advisory